Location: Copeville
(33.0796°N, 96.4155°W)
Time: 00:14:27
(UTC+00:00)

SEEDS - Pass Details

Date: 08 April 2023
Orbit: 568 x 587 km, 97.7° (Epoch: 27 May)

Event Time Altitude Azimuth Distance (km) Brightness Sun altitude
Rises 11:34:32 0° 344° (NNW) 2,825 ? -7.0°
Reaches altitude 10° 11:38:22 10° 308° (NW) 1,915 ? -6.2°
Maximum altitude 11:39:24 11° 293° (WNW) 1,858 ? -6.0°
Drops below altitude 10° 11:40:27 10° 279° (W) 1,910 ? -5.8°
Enters shadow 11:42:04 - 259° (W) 2,182 ? -5.5°
